Hourly Data Report for October 17, 2004

TORONTO CITY
ONTARIO

43°40'00.000" N
79°24'00.000" W
112.50 m
6158355
71508
XTO

Download Data

Hourly Data (October 2004)
Hourly Data Report for October 17, 2004
TIME
LST
Temp Definition
°C
Dew Point Definition
°C
Rel Hum Definition
%
Precip. Amount Definition
mm

Wind Dir Definition
10's deg

Wind Spd Definition
km/h
Visibility Definition
km
Stn Press Definition
kPa
Hmdx Definition


Wind Chill Definition


Weather Definition


00:00 6.4 3.3 81   LegendMM LegendMM LegendMM 98.33     LegendNANA
01:00 6.1 2.3 77   LegendMM LegendMM LegendMM 98.37     LegendNANA
02:00 6.1 2.7 79   LegendMM LegendMM LegendMM 98.38     LegendNANA
03:00 6.0 2.5 78   LegendMM LegendMM LegendMM 98.40     LegendNANA
04:00 6.0 2.6 79   LegendMM LegendMM LegendMM 98.43     LegendNANA
05:00 6.0 2.7 79   LegendMM LegendMM LegendMM 98.49     LegendNANA
06:00 5.8 2.6 80   LegendMM LegendMM LegendMM 98.54     LegendNANA
07:00 5.8 2.6 80   LegendMM LegendMM LegendMM 98.58     LegendNANA
08:00 6.0 2.4 78   LegendMM LegendMM LegendMM 98.65     LegendNANA
09:00 6.3 2.5 77   LegendMM LegendMM LegendMM 98.70     LegendNANA
10:00 6.3 2.7 78   LegendMM LegendMM LegendMM 98.77     LegendNANA
11:00 5.8 4.2 89   LegendMM LegendMM LegendMM 98.87     LegendNANA
12:00 6.4 4.5 88   LegendMM LegendMM LegendMM 98.91     LegendNANA
13:00 7.4 3.3 75   LegendMM LegendMM LegendMM 98.99     LegendNANA
14:00 7.0 3.3 77   LegendMM LegendMM LegendMM 99.09     LegendNANA
15:00 7.6 2.7 71   LegendMM LegendMM LegendMM 99.15     LegendNANA
16:00 7.5 2.9 73   LegendMM LegendMM LegendMM 99.23     LegendNANA
17:00 7.6 2.9 72   LegendMM LegendMM LegendMM 99.32     LegendNANA
18:00 7.4 3.3 75   LegendMM LegendMM LegendMM 99.44     LegendNANA
19:00 7.2 3.1 75   LegendMM LegendMM LegendMM 99.53     LegendNANA
20:00 6.9 3.4 78   LegendMM LegendMM LegendMM 99.61     LegendNANA
21:00 6.5 3.4 81   LegendMM LegendMM LegendMM 99.72     LegendNANA
22:00 6.3 3.2 81   LegendMM LegendMM LegendMM 99.78     LegendNANA
23:00 6.4 3.4 81   LegendMM LegendMM LegendMM 99.84     LegendNANA

Notes on Data Quality.

Legend

  • E = Estimated
  • M = Missing
  • NA = Not Available*
  • [empty] = Indicates an unobserved value
Date modified: